Regional Weather Roundup
Issued by NWS

Home | Current Version | Previous Version | Graphics & Text | Print | Product List | Glossary On
Versions: 1 2 3 4 5 6 7 8 9 10 11 12 13 14 15 16 17 18 19 20 21 22 23 24 25 26 27 28 29 30 31 32 33 34 35 36 37 38 39 40 41 42 43 44 45 46 47 48 49 50
000
ASUS43 KMPX 021501
RWRMN
WEATHER ROUNDUP FOR MINNESOTA
NATIONAL WEATHER SERVICE TWIN CITIES/CHANHASSEN MN
1000 AM CDT TUE JUN 02 2015


NOTE: "FAIR" INDICATES FEW OR NO CLOUDS BELOW 12,000 FEET WITH NO
SIGNIFICANT WEATHER AND/OR OBSTRUCTIONS TO VISIBILITY. N/A MEANS
CURRENT SKY AND/OR WEATHER CONDITIONS ARE NOT AVAILABLE.

MNZ060>063-068>070-021600-
   Twin Cities Metro

CITY           SKY/WX    TMP DP  RH WIND       PRES   REMARKS
TWIN CITIES    PTSUNNY   66  51  58 SE13      30.05F
ST PAUL        MOSUNNY   67  54  63 S12       30.06F
CRYSTAL        MOSUNNY   68  52  56 S15G22    30.03F
LAKEVILLE      MOSUNNY   64  52  63 S13G21    30.05F
EDEN PRAIRIE   MOSUNNY   67  52  58 SE16G25   30.03F
SOUTH ST PAUL  MOSUNNY   66  51  58 S13G18    30.06F
LAKE ELMO      FAIR      64  54  68 SE13      30.07F
$$
MNZ001>005-007-008-013>017-022>024-027-028-021600-
   Northwest Minnesota

CITY           SKY/WX    TMP DP  RH WIND       PRES   REMARKS
BEMIDJI        RAIN      56  52  87 S7        29.93F
HALLOCK        CLOUDY    63  55  77 S9        29.81F
ROSEAU         CLOUDY    66  57  72 S15       29.86S
WARROAD        CLOUDY    63  55  77 S9        29.88F
THIEF RVR FALL CLOUDY    59  55  88 S9        29.85F
CROOKSTON      LGT RAIN  57  57 100 S25G31    29.81F
FOSSTON        LGT RAIN  57  54  88 SE9       29.89F
DETROIT LAKES  CLOUDY    64  52  63 S14       29.94F
MOORHEAD       CLOUDY    64  54  68 S20       29.88F
PARK RAPIDS    CLOUDY    68  50  52 S13       29.95F
MAHNOMEN       FAIR      58  53  81 S14       29.89F
$$
MNZ006-009>011-018-025>026-021600-
   North Central Minnesota

CITY           SKY/WX    TMP DP  RH WIND       PRES   REMARKS
BAUDETTE       LGT RAIN  60  48  64 S10       29.90F
INTL FALLS     CLOUDY    58  45  62 VRB7      29.94F
WASKISH        LGT RAIN  55  52  88 SE8       29.91
BIG FORK       CLOUDY    61  48  63 S9        29.96S
LONGVILLE      CLOUDY    66  48  52 S13G20    29.97S
GRAND RAPIDS   PTSUNNY   63  46  55 S14G21    29.99S
CRANE LAKE     CLOUDY    59  43  55 S6        29.99S
COOK           CLOUDY    61  45  55 S9        30.00F
WALKER         CLOUDY    62  49  61 S8        29.95S
$$
MNZ012-019>021-037-021600-
   Northeast Minnesota

CITY           SKY/WX    TMP DP  RH WIND       PRES   REMARKS
DULUTH         MOSUNNY   59  42  53 S10       30.05F
ELY            PTSUNNY   63  41  45 S12       30.01F
HIBBING        CLOUDY    62  44  51 S7        30.00F
EVELETH        CLOUDY    59  41  51 S12       30.03F
DULUTH HARBOR  MOSUNNY   48  43  81 E7        30.08F
TWO HARBORS    PTSUNNY   59  45  58 S3        30.05F
SILVER BAY     CLOUDY    57  39  51 S6        30.05F
GRAND MARAIS     N/A     46  37  71 E5        30.10F
G MARAIS ARPRT PTSUNNY   57  36  44 S7        30.09F
$$
MNZ029>031-032-039>041-046>048-054>057-064-021600-
   West Central Minnesota

CITY           SKY/WX    TMP DP  RH WIND       PRES   REMARKS
FERGUS FALLS   CLOUDY    64  54  68 S16       29.94S
WHEATON        CLOUDY    64  54  68 S14       29.93F
MORRIS         CLOUDY    66  54  63 S18       29.95R
ALEXANDRIA     PTSUNNY   67  52  58 S17       29.97R
ELBOW LAKE     PTSUNNY   65  54  65 S16G22    29.96R
WADENA         PTSUNNY   66  52  59 S13       29.96S
GLENWOOD       PTSUNNY   66  54  63 S20       29.97S
APPLETON       CLOUDY    68  54  60 S9        29.95R
BENSON         CLOUDY    70  54  56 SW17      29.96R
ORTONVILLE     CLOUDY    64  54  68 S6        29.95R
MADISON        CLOUDY    68  54  60 S15       29.94R
WILLMAR        FAIR      68  55  64 S17G23    29.99R
$$
MNZ033>034-036-042>043-049>051-058-059-021600-
   Central Minnesota

CITY           SKY/WX    TMP DP  RH WIND       PRES   REMARKS
ST CLOUD       MOSUNNY   66  53  63 S15G23    29.99F
SAUK CENTRE    FAIR      67  53  59 S21       29.98R
PAYNESVILLE    PTSUNNY   64  53  67 E14G20    29.99S
AITKIN         PTSUNNY   66  48  52 S14G21    29.98F
PINE RIVER     PTSUNNY   64  52  63 SE12      30.00F
BRAINERD       PTSUNNY   66  50  56 S14       29.99F
STAPLES        MOSUNNY   66  50  55 S14       29.97S
LONG PRAIRIE   FAIR      66  52  59 SE16      29.98S
LITTLE FALLS   MOSUNNY   66  50  55 S15       29.99S
LITCHFIELD     PTSUNNY   68  54  60 SE12G17   30.00F
BUFFALO        MOSUNNY   65  51  59 SE10      30.03F
MAPLE LAKE     MOSUNNY   68  56  64 SE8G16    30.02F
$$
MNZ037-044-045-052-053-021600-
   East Central Minnesota

CITY           SKY/WX    TMP DP  RH WIND       PRES   REMARKS
PRINCETON      MOSUNNY   70  54  56 SE13      30.02F
MORA           SUNNY     64  50  59 S14       30.05F
CAMBRIDGE      SUNNY     68  52  56 S14       30.02F
RUSH CITY      SUNNY     65  50  59 S10       30.05F
MOOSE LAKE     SUNNY     64  46  52 S7G16     30.01F
HINCKLEY       FAIR      64  50  59 S10       30.05F
CLOQUET        MOSUNNY   63  45  51 S5        30.03F
MCGREGOR       MOSUNNY   66  48  52 S12       30.01F
$$
MNZ071>073-080-081-089-090-097-098-021600-
   Southwest Minnesota

CITY           SKY/WX    TMP DP  RH WIND       PRES   REMARKS
MONTEVIDEO     CLOUDY    66  55  68 SW18G25   29.96R
GRANITE FALLS  CLOUDY    66  54  64 SE21      29.98R
CANBY          CLOUDY    68  55  64 S13G18    29.95R
MARSHALL       PTSUNNY   70  52  52 S18G30    29.95R
REDWOOD FALLS  PTSUNNY   67  54  63 S21G32    29.97F
OLIVIA         CLOUDY    64  52  63 S15G26    29.98R
PIPESTONE      CLOUDY    64  54  68 S18       29.95S
WINDOM         MOSUNNY   66  54  63 SE18G24   30.00S
WORTHINGTON    SUNNY     64  52  63 S22G29    29.98F
JACKSON        SUNNY     64  54  68 S21       30.02S
TRACY          MOSUNNY   68  55  63 S17G24    29.97R
SLAYTON        MOSUNNY   66  52  59 S21       29.98S
$$
MNZ065>067-074>077-082>085-091>093-021600-
   South Central Minnesota

CITY           SKY/WX    TMP DP  RH WIND       PRES   REMARKS
MANKATO        PTSUNNY   64  52  63 S16G24    30.03F
NEW ULM        CLOUDY    64  54  68 S18       30.01S
ST JAMES       PTSUNNY   66  55  68 SE20G25   30.02F
FAIRMONT       MOSUNNY   64  52  63 S21G28    30.02F
GLENCOE        PTSUNNY   68  55  64 SE8G16    30.01F
FARIBAULT      MOSUNNY   66  54  63 S15G23    30.06F
OWATONNA       MOSUNNY   64  52  63 S18G26    30.07F
WASECA         PTSUNNY   64  52  63 S17G24    30.07S
ALBERT LEA     PTSUNNY   64  54  68 S18G24    30.06F
$$
MNZ078>079-086>088-094>096-021600-
   Southeast Minnesota

CITY           SKY/WX    TMP DP  RH WIND       PRES   REMARKS
ROCHESTER      PTSUNNY   64  53  67 S13       30.12F
RED WING       MOSUNNY   66  50  55 SE8       30.08F
STANTON        MOSUNNY   67  52  59 S13G23    30.06F
DODGE CENTER   PTSUNNY   66  54  63 S18       30.09F
WINONA         SUNNY     63  50  63 SE3       30.13F
AUSTIN         PTSUNNY   63  54  72 S15       30.09F
PRESTON        MOSUNNY   62  52  70 S10G16    30.14S
$$
ABBREVIATIONS USED IN REMARKS
   TC - TEMPERATURES IN CELSIUS
  WCI - WIND CHILL INDEX
   HX - HEAT INDEX
  VSB - VISIBILITY
$$


USA.gov is the U.S. government's official web portal to all federal, state and local government web resources and services.